TimeEST,TemperatureF,Dew PointF,Humidity,Sea Level PressureIn,VisibilityMPH,Wind Direction,Wind SpeedMPH,Gust SpeedMPH,PrecipitationIn,Events,Conditions,WindDirDegrees,DateUTC
12:14 AM,12.9,6.8,77,30.14,10.0,Calm,Calm,-,N/A,,Clear,0,2013-03-05 05:14:00
12:35 AM,12.9,7.2,78,30.14,10.0,Calm,Calm,-,N/A,,Clear,0,2013-03-05 05:35:00
12:54 AM,11.1,5.9,80,30.14,10.0,Calm,Calm,-,N/A,,Clear,0,2013-03-05 05:54:00
1:34 AM,12.9,7.7,80,30.15,10.0,Calm,Calm,-,N/A,,Clear,0,2013-03-05 06:34:00
1:54 AM,9.5,4.6,81,30.15,10.0,NE,3.5,-,N/A,,Clear,40,2013-03-05 06:54:00
2:15 AM,9.7,5.4,83,30.14,10.0,NNE,4.6,-,N/A,,Clear,30,2013-03-05 07:15:00
2:34 AM,9.9,5.4,82,30.14,10.0,NE,4.6,-,N/A,,Clear,40,2013-03-05 07:34:00
2:54 AM,10.4,6.3,83,30.15,10.0,NE,3.5,-,N/A,,Clear,50,2013-03-05 07:54:00
3:15 AM,10.0,5.9,83,30.15,10.0,NE,3.5,-,N/A,,Clear,40,2013-03-05 08:15:00
3:34 AM,7.9,4.3,85,30.14,10.0,NE,4.6,-,N/A,,Clear,40,2013-03-05 08:34:00
3:54 AM,8.1,4.3,85,30.15,10.0,Calm,Calm,-,N/A,,Clear,0,2013-03-05 08:54:00
4:15 AM,8.1,4.6,86,30.14,10.0,NE,4.6,-,N/A,,Clear,40,2013-03-05 09:15:00
4:34 AM,7.7,4.6,87,30.14,10.0,NE,3.5,-,N/A,,Clear,50,2013-03-05 09:34:00
4:54 AM,7.7,4.3,86,30.14,10.0,NE,4.6,-,N/A,,Clear,50,2013-03-05 09:54:00
5:15 AM,6.4,2.8,85,30.13,10.0,NE,6.9,-,N/A,,Clear,50,2013-03-05 10:15:00
5:34 AM,8.1,5.0,87,30.13,10.0,NE,4.6,-,N/A,,Clear,50,2013-03-05 10:34:00
5:54 AM,7.7,5.0,89,30.12,10.0,ENE,6.9,-,N/A,,Clear,60,2013-03-05 10:54:00
6:15 AM,7.7,5.0,89,30.12,10.0,ENE,6.9,-,N/A,,Clear,70,2013-03-05 11:15:00
6:34 AM,7.2,4.1,87,30.12,10.0,ENE,5.8,-,N/A,,Clear,60,2013-03-05 11:34:00
7:34 AM,7.7,5.0,89,30.12,10.0,ENE,5.8,-,N/A,,Clear,60,2013-03-05 12:34:00
7:54 AM,7.7,5.0,89,30.12,10.0,ENE,6.9,-,N/A,,Clear,70,2013-03-05 12:54:00
8:15 AM,10.4,7.7,89,30.12,10.0,East,4.6,-,N/A,,Clear,80,2013-03-05 13:15:00
8:34 AM,12.9,9.5,86,30.12,10.0,East,3.5,-,N/A,,Clear,80,2013-03-05 13:34:00
8:54 AM,14.9,10.8,84,30.13,10.0,ENE,4.6,-,N/A,,Clear,70,2013-03-05 13:54:00
9:15 AM,15.6,11.3,83,30.11,10.0,ENE,9.2,-,N/A,,Scattered Clouds,70,2013-03-05 14:15:00
9:34 AM,18.0,13.5,83,30.11,10.0,ENE,8.1,-,N/A,,Mostly Cloudy,70,2013-03-05 14:34:00
9:54 AM,19.9,14.9,81,30.11,10.0,East,10.4,-,N/A,,Overcast,80,2013-03-05 14:54:00
10:14 AM,21.6,15.8,78,30.11,10.0,East,11.5,-,N/A,,Overcast,80,2013-03-05 15:14:00
10:34 AM,23.0,16.7,77,30.09,10.0,East,12.7,18.4,N/A,,Overcast,80,2013-03-05 15:34:00
10:54 AM,23.0,16.7,77,30.09,10.0,ENE,16.1,21.9,N/A,,Overcast,70,2013-03-05 15:54:00
11:14 AM,23.0,17.1,78,30.08,10.0,East,12.7,19.6,N/A,,Overcast,90,2013-03-05 16:14:00
11:34 AM,23.7,17.2,76,30.08,10.0,ENE,16.1,-,N/A,,Overcast,60,2013-03-05 16:34:00
11:55 AM,25.2,18.7,76,30.08,10.0,East,9.2,-,N/A,,Overcast,90,2013-03-05 16:55:00
12:14 PM,25.5,19.2,77,30.07,10.0,East,12.7,-,N/A,,Overcast,80,2013-03-05 17:14:00
12:35 PM,27.5,20.3,74,30.07,10.0,ENE,15.0,-,N/A,,Overcast,60,2013-03-05 17:35:00
12:54 PM,27.9,20.7,74,30.05,10.0,ENE,10.4,17.3,N/A,,Mostly Cloudy,60,2013-03-05 17:54:00
1:14 PM,28.0,20.8,74,30.05,10.0,ENE,10.4,19.6,N/A,,Overcast,60,2013-03-05 18:14:00
1:35 PM,28.0,20.5,73,30.05,10.0,ENE,10.4,17.3,N/A,,Overcast,70,2013-03-05 18:35:00
1:54 PM,28.0,20.5,73,30.05,10.0,ENE,12.7,18.4,N/A,,Overcast,60,2013-03-05 18:54:00
2:15 PM,28.0,20.3,73,30.04,10.0,ENE,11.5,17.3,N/A,,Mostly Cloudy,70,2013-03-05 19:15:00
2:34 PM,28.0,19.9,72,30.03,10.0,NE,12.7,-,N/A,,Mostly Cloudy,50,2013-03-05 19:34:00
2:55 PM,28.0,20.1,72,30.03,10.0,NE,11.5,20.7,N/A,,Scattered Clouds,40,2013-03-05 19:55:00
3:14 PM,28.0,20.3,73,30.02,10.0,NE,15.0,19.6,N/A,,Scattered Clouds,40,2013-03-05 20:14:00
3:35 PM,28.0,20.5,73,30.02,10.0,NE,10.4,18.4,N/A,,Mostly Cloudy,50,2013-03-05 20:35:00
3:54 PM,28.0,20.3,73,30.02,10.0,NE,15.0,18.4,N/A,,Overcast,40,2013-03-05 20:54:00
4:14 PM,28.0,21.2,76,30.02,10.0,ENE,12.7,24.2,N/A,,Overcast,70,2013-03-05 21:14:00
4:35 PM,26.1,20.1,78,30.02,10.0,NE,15.0,-,N/A,,Overcast,50,2013-03-05 21:35:00
4:54 PM,25.5,19.8,79,30.03,10.0,ENE,12.7,21.9,N/A,,Overcast,60,2013-03-05 21:54:00
5:14 PM,25.5,19.9,79,30.03,10.0,NE,12.7,17.3,N/A,,Overcast,50,2013-03-05 22:14:00
5:35 PM,24.1,18.7,80,30.03,10.0,East,13.8,-,N/A,,Overcast,80,2013-03-05 22:35:00
5:54 PM,23.2,17.4,79,30.03,10.0,ENE,11.5,-,N/A,,Scattered Clouds,70,2013-03-05 22:54:00
6:14 PM,23.0,17.2,79,30.03,10.0,ENE,11.5,16.1,N/A,,Mostly Cloudy,60,2013-03-05 23:14:00
6:35 PM,24.4,18.1,77,30.03,10.0,ENE,10.4,-,N/A,,Overcast,70,2013-03-05 23:35:00
6:54 PM,24.4,18.0,76,30.03,10.0,ENE,10.4,-,N/A,,Overcast,70,2013-03-05 23:54:00
7:14 PM,24.8,18.0,75,30.03,10.0,ENE,10.4,-,N/A,,Overcast,60,2013-03-06 00:14:00
7:35 PM,25.5,18.5,75,30.03,10.0,ENE,10.4,-,N/A,,Overcast,60,2013-03-06 00:35:00
7:54 PM,25.5,18.5,75,30.03,10.0,ENE,10.4,-,N/A,,Overcast,60,2013-03-06 00:54:00
8:14 PM,25.5,18.9,76,30.04,10.0,ENE,6.9,-,N/A,,Overcast,60,2013-03-06 01:14:00
8:34 PM,25.5,18.7,75,30.05,10.0,ENE,6.9,-,N/A,,Overcast,60,2013-03-06 01:34:00
8:54 PM,25.5,18.7,75,30.05,10.0,ENE,8.1,-,N/A,,Overcast,60,2013-03-06 01:54:00
9:14 PM,26.1,19.2,75,30.06,10.0,NE,5.8,-,N/A,,Overcast,50,2013-03-06 02:14:00
9:34 PM,26.1,18.9,74,30.06,10.0,ENE,9.2,-,N/A,,Overcast,60,2013-03-06 02:34:00
9:54 PM,26.1,19.2,75,30.07,10.0,ENE,6.9,-,N/A,,Overcast,70,2013-03-06 02:54:00
10:14 PM,26.6,19.8,75,30.06,10.0,NE,5.8,-,N/A,,Overcast,50,2013-03-06 03:14:00
10:34 PM,28.0,21.0,75,30.06,10.0,NE,5.8,-,N/A,,Overcast,50,2013-03-06 03:34:00
10:54 PM,28.0,21.2,76,30.06,10.0,ENE,4.6,-,N/A,,Overcast,60,2013-03-06 03:54:00
11:15 PM,28.0,20.8,74,30.06,10.0,NE,5.8,-,N/A,,Overcast,40,2013-03-06 04:15:00
11:34 PM,28.0,21.0,75,30.06,10.0,NE,8.1,-,N/A,,Overcast,40,2013-03-06 04:34:00
11:54 PM,28.2,21.2,75,30.06,10.0,NE,10.4,-,N/A,,Overcast,40,2013-03-06 04:54:00